DW3371 Weather Reports


Display with metric or nautical units.
time (UTC)temp
F
wind
direction
speed
MPH
gust
MPH
rain 1hr
in
rain 24hr
in
rain mn
in
humidity
%
barometer
mb
20260903115758 74 296 12.0 24.0 0.00 0.00 0.00 61 1013.5
20260903112756 75 248 12.0 24.0 0.00 0.00 0.00 60 1013.5
20260903105748 74 263 14.0 23.0 0.00 0.00 0.00 60 1013.7
20260903095746 72 0 12.0 26.0 0.00 0.00 0.00 67 1013.7
20260903092740 71 265 13.0 25.0 0.00 0.00 0.00 70 1013.6
20260903085740 71 0 10.0 19.0 0.00 0.00 0.00 72 1013.4
20260903082740 69 257 10.0 24.0 0.00 0.00 0.00 73 1013.5
20260903075744 69 266 12.0 23.0 0.00 0.00 0.00 77 1013.5
20260903072737 68 298 9.0 15.0 0.00 0.00 0.00 82 1012.8
20260903065739 67 0 8.0 16.0 0.00 0.00 0.00 84 1012.5
20260903055737 66 0 6.0 11.0 0.00 0.00 0.00 86 1012.1
20260903052742 66 257 7.0 14.0 0.00 0.00 0.00 86 1012.2
20260903045737 65 215 6.0 14.0 0.00 0.00 0.00 85 1012.1
20260903042736 66 265 7.0 16.0 0.00 0.00 0.00 84 1011.8
20260903035737 66 259 8.0 16.0 0.00 0.00 0.00 85 1012.1
20260903032737 66 252 8.0 17.0 0.00 0.00 0.00 85 1012.1
20260903025744 67 242 8.0 17.0 0.00 0.00 0.00 85 1011.8
20260903022739 67 273 9.0 17.0 0.00 0.00 0.00 84 1012.2
20260903015737 67 0 10.0 18.0 0.00 0.00 0.00 84 1011.9
20260903005737 67 278 9.0 18.0 0.00 0.00 0.00 84 1012.3
20260903002743 67 238 9.0 17.0 0.00 0.00 0.00 83 1012.3
20260902235737 67 238 10.0 17.0 0.00 0.00 0.00 83 1012.5
20260902232737 67 0 8.0 16.0 0.00 0.00 0.00 83 1012.4
20260902225739 67 227 9.0 18.0 0.00 0.00 0.00 82 1012.7
20260902222736 67 0 8.0 16.0 0.00 0.00 0.00 83 1012.9
20260902215739 67 218 7.0 16.0 0.00 0.00 0.00 83 1012.5
20260902212741 67 250 8.0 21.0 0.00 0.00 0.00 84 1012.7
20260902205734 67 273 6.0 19.0 0.00 0.00 0.00 84 1012.6
20260902195735 67 225 7.0 15.0 0.00 0.00 0.00 84 1012.8
20260902185740 68 0 8.0 19.0 0.00 0.00 0.00 83 1012.7
20260902182737 68 225 8.0 17.0 0.00 0.00 0.00 79 1012.7
20260902175734 69 220 8.0 22.0 0.00 0.00 0.00 78 1012.8
20260902165732 69 207 10.0 20.0 0.00 0.00 0.00 76 1013.1
20260902162732 69 241 10.0 20.0 0.00 0.00 0.00 76 1013.2
20260902155734 68 187 9.0 23.0 0.00 0.00 0.00 78 1013.6
20260902152732 67 232 6.0 17.0 0.00 0.00 0.00 82 1013.9
20260902145734 67 210 8.0 18.0 0.00 0.00 0.00 82 1014.4
20260902142732 67 0 9.0 18.0 0.00 0.00 0.00 77 1014.6
20260902132730 69 174 8.0 16.0 0.00 0.00 0.00 69 1015.4
20260902125732 70 180 8.0 20.0 0.00 0.00 0.00 68 1015.8
20260902122728 69 199 9.0 19.0 0.00 0.00 0.00 68 1016.0